Погода в Нинах

Россия / Ставропольский край     44°29′08″N   43°56′39″E
темп.,
°C
ветер,
м/с
пор.,
м/с
влажн.,
%
обл.,
%
осадки,
мм/ч
давл.,
гПа
погр.,
м
8 мая, сб
сб800:00+12ссз116956 0.0 101811
03:00+11ююв11715 0.0 101810
06:00+13юв22735 0.0 101744
09:00+20юв3554100 0.0 1016660
12:00+23вюв56456 0.0 10151539
15:00+23вюв6641100 0.0 10131639
18:00+20юв4858100 0.0 1012230
21:00+14вюв4961100 0.0 1013155
9 мая, вс
вс900:00+11юв35758 0.0 101181
03:00+10вюв3481100 0.0 101053
06:00+11вюв1279100 0.0 100982
09:00+16ссз226378 0.0 1008385
12:00+21сз896075 0.0 10081507
15:00+12з91490100 0.8 1011705
18:00+8зсз121888100 2.6 10161000
21:00+7зсз111887100 6.4 10191120
10 мая, пн
пн1000:00+8зсз81484100 0.1 10201064
03:00+7зсз81584100 0.1 1021837
06:00+8з6138063 0.0 1021724
09:00+12зсз9125410 0.0 10211762
12:00+15зсз9124276 0.0 10192451
15:00+15зсз8114057 0.0 10182447
18:00+13з585595 0.0 1019527
21:00+8зюз4973100 0.1 1021210
11 мая, вт
вт1100:00+8юз477799 0.0 1020266
03:00+6зсз118299 0.0 102113
06:00+7ююз228397 0.0 1020104
09:00+10юв5668100 0.0 1020713
12:00+13вюв685398 0.0 10191565
15:00+15вюв6653100 0.0 10191609
18:00+15всв246561 0.0 1019311
21:00+12в48659 0.0 1019213
12 мая, ср
ср1200:00+9юв37805 0.0 1019110
03:00+7вюв35839 0.0 101872
06:00+8вюв388410 0.0 1019210
09:00+15вюв68645 0.0 10181108
12:00+18вюв575136 0.0 10171582
15:00+20вюв454853 0.0 10161796
18:00+19вюв236018 0.0 101670
21:00+13вюв48720 0.0 1016120